Year,Month,Day,Hour,Minute,Value (Times are PST for windspeed in km/hr)
2016,10,15,00,00,5.10
2016,10,15,00,01,4.40
2016,10,15,00,02,5.80
2016,10,15,00,03,4.30
2016,10,15,00,04,6.00
2016,10,15,00,05,5.30
2016,10,15,00,06,4.20
2016,10,15,00,07,4.70
2016,10,15,00,08,6.40
2016,10,15,00,09,5.30
2016,10,15,00,10,5.40
2016,10,15,00,11,4.00
2016,10,15,00,12,5.20
2016,10,15,00,13,8.70
2016,10,15,00,14,6.10
2016,10,15,00,15,5.30
2016,10,15,00,16,6.50
2016,10,15,00,17,7.40
2016,10,15,00,18,5.80
2016,10,15,00,19,7.80
2016,10,15,00,20,8.60
2016,10,15,00,21,8.60
2016,10,15,00,22,4.90
2016,10,15,00,23,6.60
2016,10,15,00,24,5.60
2016,10,15,00,25,8.10
2016,10,15,00,26,5.20
2016,10,15,00,27,4.80
2016,10,15,00,28,5.50
2016,10,15,00,29,12.50
2016,10,15,00,30,9.30
2016,10,15,00,31,9.00
2016,10,15,00,32,8.90
2016,10,15,00,33,6.80
2016,10,15,00,34,8.90
2016,10,15,00,35,8.90
2016,10,15,00,36,10.90
2016,10,15,00,37,6.90
2016,10,15,00,38,11.10
2016,10,15,00,39,8.00
2016,10,15,00,40,8.10
2016,10,15,00,41,5.30
2016,10,15,00,42,7.00
2016,10,15,00,43,8.50
2016,10,15,00,44,10.80
2016,10,15,00,45,7.10
2016,10,15,00,46,9.30
2016,10,15,00,47,10.50
2016,10,15,00,48,7.40
2016,10,15,00,49,7.40
2016,10,15,00,50,3.70
2016,10,15,00,51,7.70
2016,10,15,00,52,5.60
2016,10,15,00,53,3.60
2016,10,15,00,54,7.10
2016,10,15,00,55,4.10
2016,10,15,00,56,7.70
2016,10,15,00,57,2.80
2016,10,15,00,58,3.30
2016,10,15,00,59,5.20
2016,10,15,01,00,2.20
2016,10,15,01,01,0.00
2016,10,15,01,02,2.90
2016,10,15,01,03,3.50
2016,10,15,01,04,0.00
2016,10,15,01,05,1.20
2016,10,15,01,06,3.10
2016,10,15,01,07,3.50
2016,10,15,01,08,2.80
2016,10,15,01,09,4.60
2016,10,15,01,10,1.50
2016,10,15,01,11,5.80
2016,10,15,01,12,4.30
2016,10,15,01,13,3.50
2016,10,15,01,14,3.30
2016,10,15,01,15,3.00
2016,10,15,01,16,4.90
2016,10,15,01,17,4.70
2016,10,15,01,18,8.20
2016,10,15,01,19,12.70
2016,10,15,01,20,9.10
2016,10,15,01,21,9.30
2016,10,15,01,22,10.30
2016,10,15,01,23,4.30
2016,10,15,01,24,4.20
2016,10,15,01,25,1.80
2016,10,15,01,26,1.40
2016,10,15,01,27,2.60
2016,10,15,01,28,2.90
2016,10,15,01,29,5.20
2016,10,15,01,30,1.80
2016,10,15,01,31,0.20
2016,10,15,01,32,0.00
2016,10,15,01,33,1.90
2016,10,15,01,34,2.40
2016,10,15,01,35,3.20
2016,10,15,01,36,1.90
2016,10,15,01,37,0.10
2016,10,15,01,38,0.00
2016,10,15,01,39,0.00
2016,10,15,01,40,0.80
2016,10,15,01,41,1.50
2016,10,15,01,42,2.30
2016,10,15,01,43,5.10
2016,10,15,01,44,4.80
2016,10,15,01,45,3.60
2016,10,15,01,46,2.00
2016,10,15,01,47,1.50
2016,10,15,01,48,0.90
2016,10,15,01,49,1.00
2016,10,15,01,50,2.90
2016,10,15,01,51,3.60
2016,10,15,01,52,3.50
2016,10,15,01,53,3.50
2016,10,15,01,54,4.20
2016,10,15,01,55,4.40
2016,10,15,01,56,5.00
2016,10,15,01,57,5.00
2016,10,15,01,58,4.80
2016,10,15,01,59,3.60
2016,10,15,02,00,0.70
2016,10,15,02,01,0.30
2016,10,15,02,02,0.40
2016,10,15,02,03,4.20
2016,10,15,02,04,3.90
2016,10,15,02,05,3.70
2016,10,15,02,06,5.50
2016,10,15,02,07,5.00
2016,10,15,02,08,6.70
2016,10,15,02,09,5.70
2016,10,15,02,10,7.00
2016,10,15,02,11,7.20
2016,10,15,02,12,7.60
2016,10,15,02,13,7.00
2016,10,15,02,14,5.30
2016,10,15,02,15,5.10
2016,10,15,02,16,4.30
2016,10,15,02,17,3.90
2016,10,15,02,18,2.20
2016,10,15,02,19,4.70
2016,10,15,02,20,3.50
2016,10,15,02,21,3.60
2016,10,15,02,22,2.70
2016,10,15,02,23,3.60
2016,10,15,02,24,4.20
2016,10,15,02,25,3.60
2016,10,15,02,26,4.20
2016,10,15,02,27,4.50
2016,10,15,02,28,3.50
2016,10,15,02,29,3.80
2016,10,15,02,30,4.70
2016,10,15,02,31,3.30
2016,10,15,02,32,6.90
2016,10,15,02,33,7.00
2016,10,15,02,34,6.70
2016,10,15,02,35,8.50
2016,10,15,02,36,7.70
2016,10,15,02,37,9.00
2016,10,15,02,38,10.20
2016,10,15,02,39,9.10
2016,10,15,02,40,8.40
2016,10,15,02,41,7.70
2016,10,15,02,42,5.90
2016,10,15,02,43,6.70
2016,10,15,02,44,6.60
2016,10,15,02,45,5.60
2016,10,15,02,46,4.50
2016,10,15,02,47,5.00
2016,10,15,02,48,5.60
2016,10,15,02,49,7.30
2016,10,15,02,50,8.70
2016,10,15,02,51,8.50
2016,10,15,02,52,10.50
2016,10,15,02,53,8.90
2016,10,15,02,54,9.30
2016,10,15,02,55,8.10
2016,10,15,02,56,6.30
2016,10,15,02,57,6.80
2016,10,15,02,58,5.80
2016,10,15,02,59,5.80
2016,10,15,03,00,8.30
2016,10,15,03,01,4.60
2016,10,15,03,02,5.10
2016,10,15,03,03,6.60
2016,10,15,03,04,6.60
2016,10,15,03,05,8.90
2016,10,15,03,06,7.70
2016,10,15,03,07,8.60
2016,10,15,03,08,6.40
2016,10,15,03,09,6.60
2016,10,15,03,10,5.80
2016,10,15,03,11,5.70
2016,10,15,03,12,6.30
2016,10,15,03,13,6.70
2016,10,15,03,14,5.80
2016,10,15,03,15,5.80
2016,10,15,03,16,7.30
2016,10,15,03,17,5.20
2016,10,15,03,18,5.20
2016,10,15,03,19,4.40
2016,10,15,03,20,5.40
2016,10,15,03,21,8.80
2016,10,15,03,22,5.90
2016,10,15,03,23,7.30
2016,10,15,03,24,6.70
2016,10,15,03,25,5.40
2016,10,15,03,26,5.00
2016,10,15,03,27,3.90
2016,10,15,03,28,3.00
2016,10,15,03,29,5.60
2016,10,15,03,30,5.30
2016,10,15,03,31,5.70
2016,10,15,03,32,5.10
2016,10,15,03,33,4.30
2016,10,15,03,34,5.70
2016,10,15,03,35,7.30
2016,10,15,03,36,5.50
2016,10,15,03,37,4.50
2016,10,15,03,38,5.50
2016,10,15,03,39,6.50
2016,10,15,03,40,13.60
2016,10,15,03,41,12.50
2016,10,15,03,42,9.30
2016,10,15,03,43,8.90
2016,10,15,03,44,10.60
2016,10,15,03,45,9.30
2016,10,15,03,46,8.20
2016,10,15,03,47,10.60
2016,10,15,03,48,10.30
2016,10,15,03,49,14.10
2016,10,15,03,50,11.10
2016,10,15,03,51,10.80
2016,10,15,03,52,12.20
2016,10,15,03,53,10.90
2016,10,15,03,54,9.70
2016,10,15,03,55,7.90
2016,10,15,03,56,6.40
2016,10,15,03,57,16.20
2016,10,15,03,58,11.40
2016,10,15,03,59,12.90
2016,10,15,04,00,11.50
2016,10,15,04,01,14.20
2016,10,15,04,02,11.30
2016,10,15,04,03,14.00
2016,10,15,04,04,15.50
2016,10,15,04,05,13.60
2016,10,15,04,06,15.80
2016,10,15,04,07,14.30
2016,10,15,04,08,8.50
2016,10,15,04,09,12.20
2016,10,15,04,10,11.00
2016,10,15,04,11,6.70
2016,10,15,04,12,4.80
2016,10,15,04,13,5.30
2016,10,15,04,14,7.40
2016,10,15,04,15,6.80
2016,10,15,04,16,4.50
2016,10,15,04,17,7.20
2016,10,15,04,18,7.90
2016,10,15,04,19,7.10
2016,10,15,04,20,4.10
2016,10,15,04,21,4.40
2016,10,15,04,22,5.80
2016,10,15,04,23,5.20
2016,10,15,04,24,3.10
2016,10,15,04,25,4.50
2016,10,15,04,26,2.40
2016,10,15,04,27,1.90
2016,10,15,04,28,4.90
2016,10,15,04,29,4.20
2016,10,15,04,30,9.70
2016,10,15,04,31,7.20
2016,10,15,04,32,3.40
2016,10,15,04,33,7.90
2016,10,15,04,34,5.00
2016,10,15,04,35,6.50
2016,10,15,04,36,3.70
2016,10,15,04,37,4.10
2016,10,15,04,38,7.10
2016,10,15,04,39,3.90
2016,10,15,04,40,4.70
2016,10,15,04,41,8.10
2016,10,15,04,42,4.40
2016,10,15,04,43,7.50
2016,10,15,04,44,2.70
2016,10,15,04,45,1.90
2016,10,15,04,46,5.30
2016,10,15,04,47,1.40
2016,10,15,04,48,4.30
2016,10,15,04,49,4.60
2016,10,15,04,50,3.00
2016,10,15,04,51,0.50
2016,10,15,04,52,3.90
2016,10,15,04,53,4.70
2016,10,15,04,54,8.50
2016,10,15,04,55,6.00
2016,10,15,04,56,4.00
2016,10,15,04,57,7.40
2016,10,15,04,58,4.90
2016,10,15,04,59,7.80
2016,10,15,05,00,4.60
2016,10,15,05,01,6.00
2016,10,15,05,02,6.00
2016,10,15,05,03,4.90
2016,10,15,05,04,6.50
2016,10,15,05,05,3.40
2016,10,15,05,06,3.60
2016,10,15,05,07,3.60
2016,10,15,05,08,5.50
2016,10,15,05,09,4.80
2016,10,15,05,10,3.20
2016,10,15,05,11,6.80
2016,10,15,05,12,6.60
2016,10,15,05,13,2.10
2016,10,15,05,14,6.70
2016,10,15,05,15,5.50
2016,10,15,05,16,3.40
2016,10,15,05,17,2.80
2016,10,15,05,18,3.10
2016,10,15,05,19,5.10
2016,10,15,05,20,4.70
2016,10,15,05,21,6.30
2016,10,15,05,22,5.50
2016,10,15,05,23,5.40
2016,10,15,05,24,6.00
2016,10,15,05,25,8.40
2016,10,15,05,26,8.30
2016,10,15,05,27,7.30
2016,10,15,05,28,5.50
2016,10,15,05,29,4.10
2016,10,15,05,30,3.70
2016,10,15,05,31,3.10
2016,10,15,05,32,8.10
2016,10,15,05,33,7.70
2016,10,15,05,34,7.20
2016,10,15,05,35,6.30
2016,10,15,05,36,9.00
2016,10,15,05,37,6.70
2016,10,15,05,38,7.50
2016,10,15,05,39,5.20
2016,10,15,05,40,7.80
2016,10,15,05,41,4.50
2016,10,15,05,42,2.30
2016,10,15,05,43,8.40
2016,10,15,05,44,4.50
2016,10,15,05,45,4.60
2016,10,15,05,46,4.30
2016,10,15,05,47,6.10
2016,10,15,05,48,6.40
2016,10,15,05,49,4.90
2016,10,15,05,50,1.80
2016,10,15,05,51,7.10
2016,10,15,05,52,3.20
2016,10,15,05,53,3.00
2016,10,15,05,54,3.90
2016,10,15,05,55,2.40
2016,10,15,05,56,4.70
2016,10,15,05,57,3.40
2016,10,15,05,58,2.40
2016,10,15,05,59,8.10
2016,10,15,06,00,8.50
2016,10,15,06,01,7.80
2016,10,15,06,02,8.60
2016,10,15,06,03,9.00
2016,10,15,06,04,7.50
2016,10,15,06,05,5.20
2016,10,15,06,06,6.70
2016,10,15,06,07,5.50
2016,10,15,06,08,9.80
2016,10,15,06,09,3.90
2016,10,15,06,10,5.90
2016,10,15,06,11,6.40
2016,10,15,06,12,4.70
2016,10,15,06,13,8.80
2016,10,15,06,14,8.30
2016,10,15,06,15,5.30
2016,10,15,06,16,8.60
2016,10,15,06,17,15.90
2016,10,15,06,18,8.50
2016,10,15,06,19,9.30
2016,10,15,06,20,7.60
2016,10,15,06,21,5.90
2016,10,15,06,22,12.20
2016,10,15,06,23,10.90
2016,10,15,06,24,12.50
2016,10,15,06,25,13.40
2016,10,15,06,26,5.70
2016,10,15,06,27,14.80
2016,10,15,06,28,15.10
2016,10,15,06,29,10.90
2016,10,15,06,30,11.90
2016,10,15,06,31,16.20
2016,10,15,06,32,10.70
2016,10,15,06,33,7.90
2016,10,15,06,34,9.50
2016,10,15,06,35,13.30
2016,10,15,06,36,10.10
2016,10,15,06,37,11.50
2016,10,15,06,38,14.10
2016,10,15,06,39,10.20
2016,10,15,06,40,9.10
2016,10,15,06,41,16.50
2016,10,15,06,42,12.50
2016,10,15,06,43,8.30
2016,10,15,06,44,17.20
2016,10,15,06,45,12.50
2016,10,15,06,46,11.20
2016,10,15,06,47,8.40
2016,10,15,06,48,12.90
2016,10,15,06,49,15.80
2016,10,15,06,50,18.90
2016,10,15,06,51,20.00
2016,10,15,06,52,8.40
2016,10,15,06,53,12.60
2016,10,15,06,54,12.90
2016,10,15,06,55,11.30
2016,10,15,06,56,10.50
2016,10,15,06,57,11.50
2016,10,15,06,58,15.50
2016,10,15,06,59,9.30
2016,10,15,07,00,12.50
2016,10,15,07,01,15.00
2016,10,15,07,02,20.50
2016,10,15,07,03,9.60
2016,10,15,07,04,11.10
2016,10,15,07,05,18.30
2016,10,15,07,06,11.90
2016,10,15,07,07,12.10
2016,10,15,07,08,10.40
2016,10,15,07,09,14.10
2016,10,15,07,10,16.70
2016,10,15,07,11,9.70
2016,10,15,07,12,10.80
2016,10,15,07,13,10.50
2016,10,15,07,14,17.10
2016,10,15,07,15,15.40
2016,10,15,07,16,10.80
2016,10,15,07,17,6.70
2016,10,15,07,18,10.00
2016,10,15,07,19,17.00
2016,10,15,07,20,10.10
2016,10,15,07,21,18.70
2016,10,15,07,22,14.10
2016,10,15,07,23,12.20
2016,10,15,07,24,17.30
2016,10,15,07,25,18.90
2016,10,15,07,26,20.80
2016,10,15,07,27,13.90
2016,10,15,07,28,13.00
2016,10,15,07,29,20.10
2016,10,15,07,30,19.50
2016,10,15,07,31,17.10
2016,10,15,07,32,20.00
2016,10,15,07,33,24.40
2016,10,15,07,34,10.60
2016,10,15,07,35,20.00
2016,10,15,07,36,14.10
2016,10,15,07,37,12.60
2016,10,15,07,38,12.90
2016,10,15,07,39,13.40
2016,10,15,07,40,13.20
2016,10,15,07,41,20.00
2016,10,15,07,42,17.40
2016,10,15,07,43,20.00
2016,10,15,07,44,18.30
2016,10,15,07,45,20.70
2016,10,15,07,46,9.50
2016,10,15,07,47,21.50
2016,10,15,07,48,14.30
2016,10,15,07,49,25.30
2016,10,15,07,50,16.70
2016,10,15,07,51,12.10
2016,10,15,07,52,8.90
2016,10,15,07,53,11.20
2016,10,15,07,54,10.50
2016,10,15,07,55,8.90
2016,10,15,07,56,16.40
2016,10,15,07,57,10.50
2016,10,15,07,58,16.70
2016,10,15,07,59,13.00
2016,10,15,08,00,17.00
2016,10,15,08,01,17.00
2016,10,15,08,02,11.40
2016,10,15,08,03,20.90
2016,10,15,08,04,13.30
2016,10,15,08,05,12.10
2016,10,15,08,06,16.70
2016,10,15,08,07,16.70
2016,10,15,08,08,19.60
2016,10,15,08,09,15.00
2016,10,15,08,10,15.30
2016,10,15,08,11,16.30
2016,10,15,08,12,14.70
2016,10,15,08,13,16.30
2016,10,15,08,14,14.40
2016,10,15,08,15,14.40
2016,10,15,08,16,19.60
2016,10,15,08,17,11.30
2016,10,15,08,18,11.40
2016,10,15,08,19,13.00
2016,10,15,08,20,9.80
2016,10,15,08,21,11.90
2016,10,15,08,22,14.40
2016,10,15,08,23,12.70
2016,10,15,08,24,12.60
2016,10,15,08,25,6.00
2016,10,15,08,26,9.30
2016,10,15,08,27,17.70
2016,10,15,08,28,12.10
2016,10,15,08,29,8.20
2016,10,15,08,30,16.40
2016,10,15,08,31,13.10
2016,10,15,08,32,7.40
2016,10,15,08,33,8.50
2016,10,15,08,34,13.10
2016,10,15,08,35,17.60
2016,10,15,08,36,12.90
2016,10,15,08,37,10.30
2016,10,15,08,38,12.30
2016,10,15,08,39,14.10
2016,10,15,08,40,4.40
2016,10,15,08,41,11.30
2016,10,15,08,42,14.20
2016,10,15,08,43,18.90
2016,10,15,08,44,18.70
2016,10,15,08,45,15.80
2016,10,15,08,46,18.30
2016,10,15,08,47,7.50
2016,10,15,08,48,10.10
2016,10,15,08,49,16.50
2016,10,15,08,50,11.40
2016,10,15,08,51,10.10
2016,10,15,08,52,5.60
2016,10,15,08,53,6.60
2016,10,15,08,54,8.50
2016,10,15,08,55,7.70
2016,10,15,08,56,15.60
2016,10,15,08,57,10.80
2016,10,15,08,58,10.70
2016,10,15,08,59,14.60
2016,10,15,09,00,10.10
2016,10,15,09,01,17.50
2016,10,15,09,02,15.50
2016,10,15,09,03,13.80
2016,10,15,09,04,12.90
2016,10,15,09,05,14.00
2016,10,15,09,06,10.20
2016,10,15,09,07,20.10
2016,10,15,09,08,12.80
2016,10,15,09,09,13.40
2016,10,15,09,10,16.60
2016,10,15,09,11,17.60
2016,10,15,09,12,10.60
2016,10,15,09,13,14.20
2016,10,15,09,14,13.80
2016,10,15,09,15,15.70
2016,10,15,09,16,13.40
2016,10,15,09,17,9.60
2016,10,15,09,18,11.10
2016,10,15,09,19,14.20
2016,10,15,09,20,7.70
2016,10,15,09,21,15.20
2016,10,15,09,22,17.50
2016,10,15,09,23,15.00
2016,10,15,09,24,17.00
2016,10,15,09,25,11.00
2016,10,15,09,26,21.30
2016,10,15,09,27,18.80
2016,10,15,09,28,11.30
2016,10,15,09,29,14.40
2016,10,15,09,30,20.80
2016,10,15,09,31,20.90
2016,10,15,09,32,22.60
2016,10,15,09,33,23.10
2016,10,15,09,34,25.40
2016,10,15,09,35,26.40
2016,10,15,09,36,22.70
2016,10,15,09,37,24.10
2016,10,15,09,38,26.10
2016,10,15,09,39,20.40
2016,10,15,09,40,15.00
2016,10,15,09,41,17.90
2016,10,15,09,42,12.60
2016,10,15,09,43,22.00
2016,10,15,09,44,25.70
2016,10,15,09,45,26.10
2016,10,15,09,46,27.60
2016,10,15,09,47,26.00
2016,10,15,09,48,26.90
2016,10,15,09,49,31.30
2016,10,15,09,50,16.70
2016,10,15,09,51,23.90
2016,10,15,09,52,11.00
2016,10,15,09,53,27.00
2016,10,15,09,54,25.90
2016,10,15,09,55,25.30
2016,10,15,09,56,24.10
2016,10,15,09,57,18.70
2016,10,15,09,58,22.10
2016,10,15,09,59,29.50
2016,10,15,10,00,18.30
2016,10,15,10,01,22.80
2016,10,15,10,02,18.80
2016,10,15,10,03,17.30
2016,10,15,10,04,14.70
2016,10,15,10,05,21.30
2016,10,15,10,06,16.30
2016,10,15,10,07,28.40
2016,10,15,10,08,15.70
2016,10,15,10,09,11.90
2016,10,15,10,10,15.30
2016,10,15,10,11,22.60
2016,10,15,10,12,10.10
2016,10,15,10,13,20.40
2016,10,15,10,14,16.50
2016,10,15,10,15,14.30
2016,10,15,10,16,11.40
2016,10,15,10,17,15.30
2016,10,15,10,18,28.50
2016,10,15,10,19,25.60
2016,10,15,10,20,22.70
2016,10,15,10,21,18.40
2016,10,15,10,22,23.70
2016,10,15,10,23,31.20
2016,10,15,10,24,26.60
2016,10,15,10,25,15.80
2016,10,15,10,26,19.00
2016,10,15,10,27,27.00
2016,10,15,10,28,20.70
2016,10,15,10,29,21.90
2016,10,15,10,30,19.10
2016,10,15,10,31,17.10
2016,10,15,10,32,19.70
2016,10,15,10,33,20.70
2016,10,15,10,34,27.90
2016,10,15,10,35,24.60
2016,10,15,10,36,17.90
2016,10,15,10,37,15.30
2016,10,15,10,38,20.70
2016,10,15,10,39,22.80
2016,10,15,10,40,22.90
2016,10,15,10,41,23.30
2016,10,15,10,42,22.40
2016,10,15,10,43,18.40
2016,10,15,10,44,23.90
2016,10,15,10,45,25.80
2016,10,15,10,46,22.30
2016,10,15,10,47,21.30
2016,10,15,10,48,12.40
2016,10,15,10,49,20.10
2016,10,15,10,50,22.90
2016,10,15,10,51,30.30
2016,10,15,10,52,25.40
2016,10,15,10,53,29.10
2016,10,15,10,54,16.30
2016,10,15,10,55,20.40
2016,10,15,10,56,20.50
2016,10,15,10,57,18.00
2016,10,15,10,58,20.40
2016,10,15,10,59,18.80
2016,10,15,11,00,18.10
2016,10,15,11,01,23.10
2016,10,15,11,02,18.40
2016,10,15,11,03,18.10
2016,10,15,11,04,25.60
2016,10,15,11,05,22.20
2016,10,15,11,06,17.60
2016,10,15,11,07,17.70
2016,10,15,11,08,19.10
2016,10,15,11,09,20.40
2016,10,15,11,10,18.40
2016,10,15,11,11,20.90
2016,10,15,11,12,21.30
2016,10,15,11,13,20.60
2016,10,15,11,14,22.00
2016,10,15,11,15,26.20
2016,10,15,11,16,19.30
2016,10,15,11,17,26.30
2016,10,15,11,18,17.50
2016,10,15,11,19,20.10
2016,10,15,11,20,25.00
2016,10,15,11,21,22.90
2016,10,15,11,22,22.50
2016,10,15,11,23,26.40
2016,10,15,11,24,24.40
2016,10,15,11,25,20.70
2016,10,15,11,26,20.30
2016,10,15,11,27,20.40
2016,10,15,11,28,20.50
2016,10,15,11,29,15.50
2016,10,15,11,30,21.70
2016,10,15,11,31,22.90
2016,10,15,11,32,17.60
2016,10,15,11,33,26.30
2016,10,15,11,34,19.00
2016,10,15,11,35,24.80
2016,10,15,11,36,27.10
2016,10,15,11,37,21.30
2016,10,15,11,38,27.70
2016,10,15,11,39,29.40
2016,10,15,11,40,18.80
2016,10,15,11,41,19.80
2016,10,15,11,42,23.10
2016,10,15,11,43,23.50
2016,10,15,11,44,18.20
2016,10,15,11,45,20.70
2016,10,15,11,46,15.40
2016,10,15,11,47,19.20
2016,10,15,11,48,16.70
2016,10,15,11,49,15.60
2016,10,15,11,50,21.50
2016,10,15,11,51,22.00
2016,10,15,11,52,23.30
2016,10,15,11,53,23.80
2016,10,15,11,54,25.20
2016,10,15,11,55,26.10
2016,10,15,11,56,25.60
2016,10,15,11,57,16.80
2016,10,15,11,58,24.20
2016,10,15,11,59,18.90
2016,10,15,12,00,29.30
2016,10,15,12,01,28.00
2016,10,15,12,02,20.60
2016,10,15,12,03,20.40
2016,10,15,12,04,21.10
2016,10,15,12,05,19.90
2016,10,15,12,06,31.50
2016,10,15,12,07,19.20
2016,10,15,12,08,26.40
2016,10,15,12,09,19.90
2016,10,15,12,10,20.60
2016,10,15,12,11,21.10
2016,10,15,12,12,17.40
2016,10,15,12,13,16.00
2016,10,15,12,14,16.40
2016,10,15,12,15,18.20
2016,10,15,12,16,22.80
2016,10,15,12,17,16.70
2016,10,15,12,18,20.20
2016,10,15,12,19,13.50
2016,10,15,12,20,23.60
2016,10,15,12,21,23.10
2016,10,15,12,22,21.40
2016,10,15,12,23,28.80
2016,10,15,12,24,21.50
2016,10,15,12,25,22.00
2016,10,15,12,26,26.60
2016,10,15,12,27,14.30
2016,10,15,12,28,15.50
2016,10,15,12,29,18.30
2016,10,15,12,30,17.60
2016,10,15,12,31,16.30
2016,10,15,12,32,20.90
2016,10,15,12,33,18.30
2016,10,15,12,34,19.40
2016,10,15,12,35,14.50
2016,10,15,12,36,24.10
2016,10,15,12,37,21.40
2016,10,15,12,38,18.40
2016,10,15,12,39,24.80
2016,10,15,12,40,21.70
2016,10,15,12,41,15.10
2016,10,15,12,42,17.90
2016,10,15,12,43,16.00
2016,10,15,12,44,16.70
2016,10,15,12,45,24.20
2016,10,15,12,46,24.90
2016,10,15,12,47,18.30
2016,10,15,12,48,21.20
2016,10,15,12,49,22.40
2016,10,15,12,50,18.50
2016,10,15,12,51,15.60
2016,10,15,12,52,14.10
2016,10,15,12,53,22.00
2016,10,15,12,54,22.60
2016,10,15,12,55,23.00
2016,10,15,12,56,17.10
2016,10,15,12,57,19.60
2016,10,15,12,58,17.60
2016,10,15,12,59,18.50
2016,10,15,13,00,18.70
2016,10,15,13,01,21.60
2016,10,15,13,02,19.20
2016,10,15,13,03,31.00
2016,10,15,13,04,33.80
2016,10,15,13,05,33.80
2016,10,15,13,06,32.10
2016,10,15,13,07,23.30
2016,10,15,13,08,18.30
2016,10,15,13,09,23.90
2016,10,15,13,10,19.30
2016,10,15,13,11,14.20
2016,10,15,13,12,21.30
2016,10,15,13,13,15.40
2016,10,15,13,14,24.60
2016,10,15,13,15,31.50
2016,10,15,13,16,19.50
2016,10,15,13,17,21.10
2016,10,15,13,18,21.80
2016,10,15,13,19,18.70
2016,10,15,13,20,20.40
2016,10,15,13,21,25.60
2016,10,15,13,22,27.60
2016,10,15,13,23,17.40
2016,10,15,13,24,27.10
2016,10,15,13,25,24.10
2016,10,15,13,26,14.00
2016,10,15,13,27,22.60
2016,10,15,13,28,15.90
2016,10,15,13,29,23.50
2016,10,15,13,30,29.20
2016,10,15,13,31,25.30
2016,10,15,13,32,18.80
2016,10,15,13,33,17.10
2016,10,15,13,34,24.10
2016,10,15,13,35,17.00
2016,10,15,13,36,23.80
2016,10,15,13,37,21.30
2016,10,15,13,38,25.20
2016,10,15,13,39,21.40
2016,10,15,13,40,17.50
2016,10,15,13,41,23.20
2016,10,15,13,42,17.50
2016,10,15,13,43,19.60
2016,10,15,13,44,14.90
2016,10,15,13,45,20.90
2016,10,15,13,46,20.80
2016,10,15,13,47,22.90
2016,10,15,13,48,21.30
2016,10,15,13,49,16.50
2016,10,15,13,50,22.70
2016,10,15,13,51,21.90
2016,10,15,13,52,17.20
2016,10,15,13,53,17.80
2016,10,15,13,54,19.40
2016,10,15,13,55,20.40
2016,10,15,13,56,27.80
2016,10,15,13,57,25.70
2016,10,15,13,58,22.40
2016,10,15,13,59,20.80
2016,10,15,14,00,17.50
2016,10,15,14,01,16.50
2016,10,15,14,02,20.10
2016,10,15,14,03,17.40
2016,10,15,14,04,23.80
2016,10,15,14,05,34.10
2016,10,15,14,06,24.10
2016,10,15,14,07,23.00
2016,10,15,14,08,28.40
2016,10,15,14,09,26.70
2016,10,15,14,10,24.10
2016,10,15,14,11,23.60
2016,10,15,14,12,24.60
2016,10,15,14,13,23.30
2016,10,15,14,14,24.70
2016,10,15,14,15,21.10
2016,10,15,14,16,21.80
2016,10,15,14,17,25.90
2016,10,15,14,18,25.60
2016,10,15,14,19,23.20
2016,10,15,14,20,25.20
2016,10,15,14,21,22.60
2016,10,15,14,22,23.50
2016,10,15,14,23,24.60
2016,10,15,14,24,26.60
2016,10,15,14,25,24.80
2016,10,15,14,26,29.80
2016,10,15,14,27,34.30
2016,10,15,14,28,31.40
2016,10,15,14,29,34.80
2016,10,15,14,30,29.90
2016,10,15,14,31,35.60
2016,10,15,14,32,32.50
2016,10,15,14,33,36.40
2016,10,15,14,34,28.50
2016,10,15,14,35,32.00
2016,10,15,14,36,26.70
2016,10,15,14,37,29.50
2016,10,15,14,38,39.10
2016,10,15,14,39,29.50
2016,10,15,14,40,35.50
2016,10,15,14,41,34.00
2016,10,15,14,42,40.90
2016,10,15,14,43,39.70
2016,10,15,14,44,37.30
2016,10,15,14,45,39.50
2016,10,15,14,46,41.80
2016,10,15,14,47,33.20
2016,10,15,14,48,39.70
2016,10,15,14,49,33.90
2016,10,15,14,50,40.60
2016,10,15,14,51,25.40
2016,10,15,14,52,37.30
2016,10,15,14,53,31.90
2016,10,15,14,54,27.40
2016,10,15,14,55,40.40
2016,10,15,14,56,37.70
2016,10,15,14,57,37.30
2016,10,15,14,58,22.60
2016,10,15,14,59,44.10
2016,10,15,15,00,36.90
2016,10,15,15,01,40.00
2016,10,15,15,02,45.10
2016,10,15,15,03,42.30
2016,10,15,15,04,43.60
2016,10,15,15,05,31.90
2016,10,15,15,06,30.00
2016,10,15,15,07,30.20
2016,10,15,15,08,36.00
2016,10,15,15,09,29.00
2016,10,15,15,10,34.00
2016,10,15,15,11,28.90
2016,10,15,15,12,29.10
2016,10,15,15,13,24.60
2016,10,15,15,14,25.10
2016,10,15,15,15,37.80
2016,10,15,15,16,37.50
2016,10,15,15,17,26.70
2016,10,15,15,18,41.00
2016,10,15,15,19,27.40
2016,10,15,15,20,28.60
2016,10,15,15,21,36.80
2016,10,15,15,22,32.90
2016,10,15,15,23,23.50
2016,10,15,15,24,40.20
2016,10,15,15,25,31.50
2016,10,15,15,26,25.50
2016,10,15,15,27,30.90
2016,10,15,15,28,32.90
2016,10,15,15,29,28.50
2016,10,15,15,30,46.30
2016,10,15,15,31,41.10
2016,10,15,15,32,26.40
2016,10,15,15,33,31.70
2016,10,15,15,34,39.40
2016,10,15,15,35,32.90
2016,10,15,15,36,36.60
2016,10,15,15,37,27.10
2016,10,15,15,38,21.30
2016,10,15,15,39,31.70
2016,10,15,15,40,37.60
2016,10,15,15,41,23.60
2016,10,15,15,42,26.30
2016,10,15,15,43,28.40
2016,10,15,15,44,22.90
2016,10,15,15,45,29.70
2016,10,15,15,46,33.30
2016,10,15,15,47,28.60
2016,10,15,15,48,31.30
2016,10,15,15,49,32.10
2016,10,15,15,50,34.00
2016,10,15,15,51,35.60
2016,10,15,15,52,26.90
2016,10,15,15,53,21.50
2016,10,15,15,54,34.90
2016,10,15,15,55,33.30
2016,10,15,15,56,29.70
2016,10,15,15,57,29.70
2016,10,15,15,58,23.70
2016,10,15,15,59,27.20
2016,10,15,16,00,29.60
2016,10,15,16,01,30.40
2016,10,15,16,02,25.80
2016,10,15,16,03,19.00
2016,10,15,16,04,21.70
2016,10,15,16,05,25.70
2016,10,15,16,06,25.10
2016,10,15,16,07,16.40
2016,10,15,16,08,29.90
2016,10,15,16,09,15.20
2016,10,15,16,10,24.20
2016,10,15,16,11,16.90
2016,10,15,16,12,20.00
2016,10,15,16,13,15.10
2016,10,15,16,14,22.40
2016,10,15,16,15,18.80
2016,10,15,16,16,27.30
2016,10,15,16,17,13.90
2016,10,15,16,18,20.50
2016,10,15,16,19,14.60
2016,10,15,16,20,24.30
2016,10,15,16,21,20.60
2016,10,15,16,22,23.50
2016,10,15,16,23,26.60
2016,10,15,16,24,25.60
2016,10,15,16,25,17.40
2016,10,15,16,26,27.90
2016,10,15,16,27,24.10
2016,10,15,16,28,31.10
2016,10,15,16,29,29.10
2016,10,15,16,30,26.20
2016,10,15,16,31,15.40
2016,10,15,16,32,24.90
2016,10,15,16,33,22.90
2016,10,15,16,34,22.40
2016,10,15,16,35,17.60
2016,10,15,16,36,25.60
2016,10,15,16,37,22.00
2016,10,15,16,38,24.90
2016,10,15,16,39,23.70
2016,10,15,16,40,25.90
2016,10,15,16,41,31.40
2016,10,15,16,42,17.80
2016,10,15,16,43,10.20
2016,10,15,16,44,21.10
2016,10,15,16,45,27.90
2016,10,15,16,46,18.90
2016,10,15,16,47,17.90
2016,10,15,16,48,24.70
2016,10,15,16,49,15.10
2016,10,15,16,50,17.30
2016,10,15,16,51,29.50
2016,10,15,16,52,25.70
2016,10,15,16,53,18.80
2016,10,15,16,54,14.70
2016,10,15,16,55,22.90
2016,10,15,16,56,15.80
2016,10,15,16,57,23.20
2016,10,15,16,58,22.80
2016,10,15,16,59,19.90
2016,10,15,17,00,24.00
2016,10,15,17,01,21.20
2016,10,15,17,02,18.20
2016,10,15,17,03,21.60
2016,10,15,17,04,20.50
2016,10,15,17,05,11.70
2016,10,15,17,06,25.20
2016,10,15,17,07,26.30
2016,10,15,17,08,19.30
2016,10,15,17,09,25.30
2016,10,15,17,10,16.00
2016,10,15,17,11,12.00
2016,10,15,17,12,19.90
2016,10,15,17,13,24.50
2016,10,15,17,14,5.20
2016,10,15,17,15,9.40
2016,10,15,17,16,13.30
2016,10,15,17,17,20.20
2016,10,15,17,18,16.00
2016,10,15,17,19,10.20
2016,10,15,17,20,11.10
2016,10,15,17,21,14.80
2016,10,15,17,22,20.80
2016,10,15,17,23,14.80
2016,10,15,17,24,12.60
2016,10,15,17,25,24.20
2016,10,15,17,26,16.40
2016,10,15,17,27,11.10
2016,10,15,17,28,16.70
2016,10,15,17,29,9.10
2016,10,15,17,30,14.50
2016,10,15,17,31,21.20
2016,10,15,17,32,17.10
2016,10,15,17,33,25.10
2016,10,15,17,34,12.60
2016,10,15,17,35,19.00